Torna al catalogo

KUIPER-00569

AttivoComunicazioniLEO
NORAD 69766·PAYLOAD·🇺🇸 United States

Lanciato Jul 2, 2026 da Cape Canaveral Space Force Station

Loading…

Prossimi Passaggi (prossime 24 ore)

TLE

AggiornatoSource: CelesTrak SupGP

Epoca: Sep 14, 2026, 21:28 UTC

1 69766C 26151D   26257.89451389  .00003700  00000+0  48440-3 0  2577
2 69766  51.9005 256.4676 0000786  42.6544 195.6484 14.79923666    19

Traccia KUIPER-00569 in tempo reale con AllMySat

Download on the App Store